Pagina principale
METAR-TAF:

METAR-TAF

Aeroporti :

Johannesburg, Sudafrica

latitudine: 26-09S, longitudine: 28-00E, altezza: 1626 m

Osservazione

Il bollettino è stato emesso 56 minuti fa, alle 18:00 UTC
Vento calmo
Temperature 22°C
Umidità 53%
Pressione 1021 hPa

METAR: FAJB 161800Z AUTO 00000KT //// // ////// 22/12 Q1021

Ora: 20:56 (18:56 UTC)


TAF: mancante

Osservazioni e previsioni meteorologiche di più di 4000 aeroporti (messaggi METAR e TAF).

Le stazioni disponibili sono rappresentate dai dischi gialli e rossi sulla carta.

Puntare il mouse per vedere il nome della stazione.

Clicca sopra per visualizzare le osservazioni e previsioni meteorologiche.

Per cambiare la mappa : fare clic sui pulsanti verdi con una croce nera per ingrandire, il pulsante verde con un trattino per diminuire, o sulla freccia verde per le mappe adiacenti.


METAR-TAF: